Regional Weather Roundup
Issued by NWS

Home | Current Version | Previous Version | Text Only | Print | Product List | Glossary Off
Versions: 1 2 3 4 5 6 7 8 9 10 11 12 13 14 15 16 17 18 19 20 21 22 23 24 25 26 27 28 29 30 31 32 33 34 35 36 37 38 39 40 41 42 43 44 45 46 47 48 49 50

000
ASUS43 KDTX 181701
RWRMI
MICHIGAN HOURLY REGIONAL WEATHER ROUNDUP
NATIONAL WEATHER SERVICE DETROIT/PONTIAC MI
1200 PM EST THU DEC 18 2014

NOTE: "FAIR" INDICATES FEW OR NO CLOUDS BELOW 12,000 FEET WITH NO
SIGNIFICANT WEATHER AND/OR OBSTRUCTION TO VISIBILITY.

MIZ047>049-052>055-059>063-066>070-074>076-081>083-181800-
SOUTHEAST LOWER MICHIGAN

CITY           SKY/WX    TMP DP  RH WIND       PRES   REMARKS
ADRIAN         CLOUDY    31  25  78 W9        30.22F WCI  23
ALMA           CLOUDY    30  27  87 NW7       30.21F WCI  23
ANN ARBOR      CLOUDY    31  26  82 NW8       30.19F WCI  23
BAD AXE        CLOUDY    27  24  91 NW10      30.19F WCI  17
CARO           CLOUDY    28  25  87 NW5       30.19F WCI  23
DETROIT CITY   CLOUDY    33  27  78 W7        30.20F WCI  27
DETROIT        FRZ DRZL  31  28  89 W7        30.21F WCI  24
FLINT          CLOUDY    32  29  88 NW9       30.20S FOG     WCI  24
GROSSE ILE     CLOUDY    32  27  80 W6        30.19F WCI  26
HILLSDALE      CLOUDY    30  26  85 W8        30.19F WCI  23
HOWELL         CLOUDY    31  29  94 W5        30.18F FOG     WCI  26

CITY           SKY/WX    TMP DP  RH WIND       PRES   REMARKS
JACKSON        CLOUDY    30  26  85 W6        30.20F FOG     WCI  24
LAMBERTVILLE   CLOUDY    32  27  80 W7        30.22F WCI  26
LANSING        CLOUDY    31  28  89 NW9       30.20F WCI  23
LAPEER         MIX PCPN  28  28  96 N5        30.18F WCI  23
MASON          CLOUDY    31  29  92 W7        30.19F WCI  24
MONROE         CLOUDY    32  27  80 W8        30.19F WCI  25
MT. CLEMENS    FLURRIES  33  29  87 W8        30.17F WCI  25
PONTIAC        CLOUDY    30  28  92 W7        30.17F WCI  23
PORT HOPE        N/A     28  23  81 W9G18     30.16F WCI  19
PORT HURON     CLOUDY    30  27  86 W5        30.19F WCI  25
TRI CITIES     CLOUDY    31  25  78 N6        30.21F WCI  25
TROY           CLOUDY    33  29  87 W8        30.20F WCI  26
SAGINAW HB     CLOUDY    30  30 100 CALM      30.20F FOG
$$
MIZ043>046-050>051-056>058-064>065-071>073-077>080-181800-
SOUTHWEST LOWER MICHIGAN

CITY           SKY/WX    TMP DP  RH WIND       PRES   REMARKS
BATTLE CREEK   CLOUDY    31  24  75 W10       30.21F WCI  22
BENTON HARBOR  CLOUDY    28  23  81 SW8       30.26F WCI  20
BIG RAPIDS     CLOUDY    29  26  90 CALM      30.19F
COLDWATER      CLOUDY    29  25  84 W13       30.21F WCI  19
FREMONT        CLOUDY    31  26  80 N7        30.21F WCI  25
HOLLAND        CLOUDY    34  27  75 W14       30.23F WCI  25
GRAND RAPIDS   LGT SNOW  31  28  89 W8        30.21F FOG     WCI  23
IONIA          CLOUDY    33  28  83 NW5       30.19F WCI  28
KALAMAZOO      CLOUDY    30  24  78 W10       30.23F WCI  21
LUDINGTON      CLOUDY    31  26  81 E5        30.23F WCI  26
MARSHALL       CLOUDY    30  26  82 W10       30.21F WCI  21
MOUNT PLEASANT CLOUDY    30  25  83 N5        30.20F WCI  25
MUSKEGON       CLOUDY    34  27  75 N3        30.22F
SOUTH HAVEN    CLOUDY    32  26  77 SW7       30.24F WCI  26
$$
MIZ016>042-181800-
NORTHERN LOWER MICHIGAN

CITY           SKY/WX    TMP DP  RH WIND       PRES   REMARKS
ALPENA         CLOUDY    24  18  77 N10       30.20F WCI  14
BEAVER ISLAND  SUNNY     24  11  59 N10       30.25F WCI  13
BELLAIRE       MOSUNNY   24  19  82 NE3       30.23F
CADILLAC       CLOUDY    26  22  84 NW5       30.17F WCI  20
CHARLEVOIX     SUNNY     23  15  71 E5        30.26F WCI  17
FRANKFORT      CLOUDY    28  24  82 N3        30.23F
GAYLORD        MOSUNNY   19  14  81 CALM      30.17F
GRAYLING       CLOUDY    24  21  87 NE3       30.19S
HARBOR SPRINGS SUNNY     22  12  65 E5        30.22F WCI  16
HOUGHTON LAKE  CLOUDY    24  19  81 CALM      30.18F
MANISTEE       CLOUDY    28  21  74 NE6       30.24F WCI  22
OSCODA         CLOUDY    26  23  89 NW7       30.19F WCI  18
PELLSTON       SUNNY     22  12  65 NE7       30.24F WCI  13
ROGERS CITY    CLOUDY    24  20  88 N6        30.23S WCI  16
TRAVERSE CITY  CLOUDY    29  23  78 NE6       30.22S WCI  23
$$
MIZ007>008-015-181800-
EASTERN UPPER MICHIGAN

CITY           SKY/WX    TMP DP  RH WIND       PRES   REMARKS
KINROSS        SUNNY     19   7  58 NW9       30.23F WCI   9
MACKINAC ISLAN SUNNY     21   9  60 NE8       30.23F WCI  11
NEWBERRY       SUNNY     20  11  69 N8        30.25S WCI  10
MUNISING         N/A     30  19  63 NE14      30.28F WCI  19
$$
MIZ004>006-011>014-085-181800-
CENTRAL UPPER MICHIGAN

CITY           SKY/WX    TMP DP  RH WIND       PRES   REMARKS
MANISTIQUE     SUNNY     24  13  65 N9        30.26F WCI  14
ESCANABA       SUNNY     27  12  54 NE10      30.27F WCI  17
MENOMINEE      CLOUDY    25  18  74 NE5       30.27F WCI  19
SAWYER-GWINN   SUNNY     25  16  68 NE7       30.26S WCI  17
$$
MIZ001>003-009>011-084-181800-
WESTERN UPPER MICHIGAN

CITY           SKY/WX    TMP DP  RH WIND       PRES   REMARKS
IRON MOUNTAIN  MOSUNNY   25  17  72 N6        30.25F WCI  18
HOUGHTON       SUNNY     24  17  74 NE3       30.28F
COPPER HARBOR    N/A     29  18  63 E3        30.31F
IRONWOOD       MOSUNNY   21  18  86 SE9       30.25F WCI  11
$$

ABBREVIATIONS USED IN REMARKS
   TC - TEMPERATURE IN CELSIUS
  WCI - WIND CHILL INDEX
   HX - HEAT INDEX
  VSB - VISIBILITY



USA.gov is the U.S. government's official web portal to all federal, state and local government web resources and services.